Tracking 30743 objects as of 21-Jun-2025
HD Live streaming from Space Station
objects crossing your sky now

NOAA 16 DEB

Track NOAA 16 DEB now!
10-day predictions


NORAD ID: 41537
Int'l Code: 2000-055NM
Perigee: 823.7 km
Apogee: 827.4 km
Inclination: 98.6 °
Period: 101.3 minutes
Semi major axis: 7196 km
RCS: Unknown
Launch date: September 21, 2000
Source: United States (US)
Launch site: AIR FORCE WESTERN TEST RANGE (AFWTR)

Note: This is SATELLITE DEBRIS
Your satellite tracking list
Your tracking list is empty




NASA's NSSDC Master Catalog

Two Line Element Set (TLE):
1 41537U 00055NM  25171.90619427  .00001490  00000-0  69336-3 0  9998
2 41537  98.6296 238.5750 0002580 262.8224  97.2660 14.22051428486246
Source of the keplerian elements: AFSPC